STARLINK-33558, 63643

Orbit data source: Space-Track

STARLINK-33558, 63643 is a payload satellite owned by SpaceX/Seattle (US) in LEO that was launched on Fri, 25 Apr 2025 UTC via an FALCON 9 launch vehicle from the Air Force Eastern Test Range (AFETR). Payload-class satellites include a variety of spacecraft equipped with specific instruments for various scientific and technological missions. These include communications satellites like Starlink; space stations such as the ISS; scientific satellites like the Hubble; Earth observation satellites from companies like Planet Labs, Umbra, and HawkEye 360; GPS; miniature CubeSats for education and research; and military/defense satellites.

Loading next visibility...
Identifier
63643, 2025-083K
Orbit
LEO
Country
Flag of USUS
Related business
Manufacturer
SpaceX/Seattle
Mission
Operational Commercial Communications
Bus & Motor
STARLINK V2MO, Unknown motor
Mass
575 kg wet, ~530 kg dry
Launch date (UTC)
2025-04-25 (1 year ago)
Launch vehicle
FALCON 9
Launch site
Air Force Eastern Test Range (AFETR)
Object type
Payload
Rocket body
Debris
Shape & HBR
Box + 2 Pan, 17.7 m
Radar Cross Section
36.964 m², Large (>1 m²)

Expand to show TLE details & history
Last TLE update: 14 hours ago

TLE from 14 hours ago
0 STARLINK-33558
1 63643U 25083K   26171.30533564  .00010474  00000-0  38948-3 0  9997
2 63643  43.0025 145.4282 0001310 264.0950  95.9753 15.27589493 65760
Epoch: 2026-06-20T07:19Z
TLE epoch observation values (Epoch: 2026-06-20T07:19:40.999Z)
Latitude
0.00003°
Longitude
126.98554°
Altitude
482.89 km
Speed
7.626 km/s
True Right ascension
09h 41m 42s
True Declination
0° 00' 00"
Sunlit
Object was in daylight at epoch
Visualization orbit readout
Latitude
Unknown
Longitude
Unknown
Altitude
Unknown
Speed
Unknown
Apparent Right ascension
Unknown
Apparent Declination
Unknown
Sunlit
N/A
Visualization observer readout
Local Sidereal Time
08:33:05
Azimuth
Unknown
Elevation
Unknown
Doppler factor
Unknown
Orbital elements
Apogee altitude
485.864 km
Perigee altitude
484.066 km
Semi-major axis
6,863.102 km
Eccentricity
0.00013
Inclination
43.0025°
RAAN
145.4282°
Arg. of periapsis
264.095°
True anomaly
95.99023°
Mean anomaly
95.9753°
Eccentric anomaly
95.98276°
Mean motion
3.81735 °/min
Orbital period
94.31 mins
BSTAR
0.00038948
Loading maneuver chart data...
Computing Atmospheric mass density...
Loading historical data...
Loading historical data...
Loading historical data...
Loading historical data...
Loading historical data...
Loading historical data...
Loading historical data...

Documentation

Showing up to 5 results
|